Year,Month,Day,Hour,Minute,Value (Times are PST for temperature in C)
2011,08,21,00,00,18.20
2011,08,21,00,01,18.20
2011,08,21,00,02,18.20
2011,08,21,00,03,18.20
2011,08,21,00,04,18.20
2011,08,21,00,05,18.20
2011,08,21,00,06,18.10
2011,08,21,00,07,18.10
2011,08,21,00,08,18.10
2011,08,21,00,09,18.10
2011,08,21,00,10,18.10
2011,08,21,00,11,18.10
2011,08,21,00,12,18.10
2011,08,21,00,13,18.10
2011,08,21,00,14,18.10
2011,08,21,00,15,18.20
2011,08,21,00,16,18.20
2011,08,21,00,17,18.20
2011,08,21,00,18,18.20
2011,08,21,00,19,18.20
2011,08,21,00,20,18.20
2011,08,21,00,21,18.20
2011,08,21,00,22,18.20
2011,08,21,00,23,18.20
2011,08,21,00,24,18.20
2011,08,21,00,25,18.20
2011,08,21,00,26,18.20
2011,08,21,00,27,18.20
2011,08,21,00,28,18.20
2011,08,21,00,29,18.10
2011,08,21,00,30,18.10
2011,08,21,00,31,18.10
2011,08,21,00,32,18.10
2011,08,21,00,33,18.10
2011,08,21,00,34,18.00
2011,08,21,00,35,18.00
2011,08,21,00,36,18.00
2011,08,21,00,37,18.00
2011,08,21,00,38,18.00
2011,08,21,00,39,18.00
2011,08,21,00,40,17.90
2011,08,21,00,41,17.90
2011,08,21,00,42,17.90
2011,08,21,00,43,17.90
2011,08,21,00,44,17.90
2011,08,21,00,45,17.90
2011,08,21,00,46,17.80
2011,08,21,00,47,17.80
2011,08,21,00,48,17.80
2011,08,21,00,49,17.80
2011,08,21,00,50,17.70
2011,08,21,00,51,17.70
2011,08,21,00,52,17.70
2011,08,21,00,53,17.70
2011,08,21,00,54,17.70
2011,08,21,00,55,17.70
2011,08,21,00,56,17.70
2011,08,21,00,57,17.70
2011,08,21,00,58,17.70
2011,08,21,00,59,17.70
2011,08,21,01,00,17.70
2011,08,21,01,01,17.70
2011,08,21,01,02,17.70
2011,08,21,01,03,17.70
2011,08,21,01,04,17.70
2011,08,21,01,05,17.70
2011,08,21,01,06,17.70
2011,08,21,01,07,17.60
2011,08,21,01,08,17.60
2011,08,21,01,09,17.60
2011,08,21,01,10,17.60
2011,08,21,01,11,17.60
2011,08,21,01,12,17.60
2011,08,21,01,13,17.60
2011,08,21,01,14,17.60
2011,08,21,01,15,17.60
2011,08,21,01,16,17.60
2011,08,21,01,17,17.60
2011,08,21,01,18,17.60
2011,08,21,01,19,17.60
2011,08,21,01,20,17.60
2011,08,21,01,21,17.60
2011,08,21,01,22,17.60
2011,08,21,01,23,17.60
2011,08,21,01,24,17.60
2011,08,21,01,25,17.60
2011,08,21,01,26,17.60
2011,08,21,01,27,17.60
2011,08,21,01,28,17.60
2011,08,21,01,29,17.60
2011,08,21,01,30,17.60
2011,08,21,01,31,17.50
2011,08,21,01,32,17.50
2011,08,21,01,33,17.50
2011,08,21,01,34,17.50
2011,08,21,01,35,17.50
2011,08,21,01,36,17.50
2011,08,21,01,37,17.60
2011,08,21,01,38,17.50
2011,08,21,01,39,17.60
2011,08,21,01,40,17.60
2011,08,21,01,41,17.60
2011,08,21,01,42,17.60
2011,08,21,01,43,17.60
2011,08,21,01,44,17.60
2011,08,21,01,45,17.60
2011,08,21,01,46,17.60
2011,08,21,01,47,17.60
2011,08,21,01,48,17.60
2011,08,21,01,49,17.60
2011,08,21,01,50,17.60
2011,08,21,01,51,17.60
2011,08,21,01,52,17.60
2011,08,21,01,53,17.60
2011,08,21,01,54,17.60
2011,08,21,01,55,17.60
2011,08,21,01,56,17.60
2011,08,21,01,57,17.60
2011,08,21,01,58,17.60
2011,08,21,01,59,17.60
2011,08,21,02,00,17.70
2011,08,21,02,01,17.70
2011,08,21,02,02,17.70
2011,08,21,02,03,17.70
2011,08,21,02,04,17.70
2011,08,21,02,05,17.70
2011,08,21,02,06,17.80
2011,08,21,02,07,17.80
2011,08,21,02,08,17.80
2011,08,21,02,09,17.90
2011,08,21,02,10,17.90
2011,08,21,02,11,17.90
2011,08,21,02,12,17.90
2011,08,21,02,13,18.00
2011,08,21,02,14,18.00
2011,08,21,02,15,18.00
2011,08,21,02,16,18.00
2011,08,21,02,17,18.00
2011,08,21,02,18,18.00
2011,08,21,02,19,18.00
2011,08,21,02,20,18.00
2011,08,21,02,21,18.00
2011,08,21,02,22,18.00
2011,08,21,02,23,18.00
2011,08,21,02,24,18.00
2011,08,21,02,25,18.00
2011,08,21,02,26,18.00
2011,08,21,02,27,17.90
2011,08,21,02,28,17.90
2011,08,21,02,29,17.90
2011,08,21,02,30,17.90
2011,08,21,02,31,17.80
2011,08,21,02,32,17.80
2011,08,21,02,33,17.80
2011,08,21,02,34,17.70
2011,08,21,02,35,17.70
2011,08,21,02,36,17.70
2011,08,21,02,37,17.60
2011,08,21,02,38,17.60
2011,08,21,02,39,17.60
2011,08,21,02,40,17.60
2011,08,21,02,41,17.60
2011,08,21,02,42,17.50
2011,08,21,02,43,17.50
2011,08,21,02,44,17.50
2011,08,21,02,45,17.50
2011,08,21,02,46,17.50
2011,08,21,02,47,17.40
2011,08,21,02,48,17.40
2011,08,21,02,49,17.40
2011,08,21,02,50,17.30
2011,08,21,02,51,17.30
2011,08,21,02,52,17.30
2011,08,21,02,53,17.30
2011,08,21,02,54,17.30
2011,08,21,02,55,17.30
2011,08,21,02,56,17.30
2011,08,21,02,57,17.20
2011,08,21,02,58,17.20
2011,08,21,02,59,17.20
2011,08,21,03,00,17.20
2011,08,21,03,01,17.20
2011,08,21,03,02,17.20
2011,08,21,03,03,17.20
2011,08,21,03,04,17.20
2011,08,21,03,05,17.20
2011,08,21,03,06,17.20
2011,08,21,03,07,17.20
2011,08,21,03,08,17.10
2011,08,21,03,09,17.10
2011,08,21,03,10,17.10
2011,08,21,03,11,17.10
2011,08,21,03,12,17.10
2011,08,21,03,13,17.10
2011,08,21,03,14,17.10
2011,08,21,03,15,17.00
2011,08,21,03,16,17.00
2011,08,21,03,17,17.00
2011,08,21,03,18,16.90
2011,08,21,03,19,16.90
2011,08,21,03,20,16.90
2011,08,21,03,21,16.90
2011,08,21,03,22,16.90
2011,08,21,03,23,16.80
2011,08,21,03,24,16.80
2011,08,21,03,25,16.80
2011,08,21,03,26,16.80
2011,08,21,03,27,16.70
2011,08,21,03,28,16.70
2011,08,21,03,29,16.60
2011,08,21,03,30,16.50
2011,08,21,03,31,16.50
2011,08,21,03,32,16.40
2011,08,21,03,33,16.40
2011,08,21,03,34,16.30
2011,08,21,03,35,16.30
2011,08,21,03,36,16.30
2011,08,21,03,37,16.20
2011,08,21,03,38,16.20
2011,08,21,03,39,16.10
2011,08,21,03,40,16.00
2011,08,21,03,41,16.00
2011,08,21,03,42,15.90
2011,08,21,03,43,15.90
2011,08,21,03,44,15.80
2011,08,21,03,45,15.80
2011,08,21,03,46,15.80
2011,08,21,03,47,15.70
2011,08,21,03,48,15.70
2011,08,21,03,49,15.70
2011,08,21,03,50,15.70
2011,08,21,03,51,15.70
2011,08,21,03,52,15.70
2011,08,21,03,53,15.70
2011,08,21,03,54,15.70
2011,08,21,03,55,15.60
2011,08,21,03,56,15.60
2011,08,21,03,57,15.60
2011,08,21,03,58,15.60
2011,08,21,03,59,15.60
2011,08,21,04,00,15.60
2011,08,21,04,01,15.60
2011,08,21,04,02,15.60
2011,08,21,04,03,15.60
2011,08,21,04,04,15.60
2011,08,21,04,05,15.60
2011,08,21,04,06,15.50
2011,08,21,04,07,15.50
2011,08,21,04,08,15.50
2011,08,21,04,09,15.50
2011,08,21,04,10,15.40
2011,08,21,04,11,15.40
2011,08,21,04,12,15.40
2011,08,21,04,13,15.40
2011,08,21,04,14,15.30
2011,08,21,04,15,15.30
2011,08,21,04,16,15.30
2011,08,21,04,17,15.30
2011,08,21,04,18,15.30
2011,08,21,04,19,15.30
2011,08,21,04,20,15.20
2011,08,21,04,21,15.20
2011,08,21,04,22,15.20
2011,08,21,04,23,15.20
2011,08,21,04,24,15.20
2011,08,21,04,25,15.20
2011,08,21,04,26,15.20
2011,08,21,04,27,15.20
2011,08,21,04,28,15.10
2011,08,21,04,29,15.10
2011,08,21,04,30,15.10
2011,08,21,04,31,15.10
2011,08,21,04,32,15.10
2011,08,21,04,33,15.10
2011,08,21,04,34,15.10
2011,08,21,04,35,15.10
2011,08,21,04,36,15.10
2011,08,21,04,37,15.10
2011,08,21,04,38,15.10
2011,08,21,04,39,15.00
2011,08,21,04,40,15.00
2011,08,21,04,41,15.00
2011,08,21,04,42,15.00
2011,08,21,04,43,15.00
2011,08,21,04,44,14.90
2011,08,21,04,45,14.90
2011,08,21,04,46,14.90
2011,08,21,04,47,14.90
2011,08,21,04,48,14.90
2011,08,21,04,49,14.90
2011,08,21,04,50,14.90
2011,08,21,04,51,14.90
2011,08,21,04,52,14.80
2011,08,21,04,53,14.80
2011,08,21,04,54,14.80
2011,08,21,04,55,14.80
2011,08,21,04,56,14.80
2011,08,21,04,57,14.80
2011,08,21,04,58,14.80
2011,08,21,04,59,14.80
2011,08,21,05,00,14.70
2011,08,21,05,01,14.70
2011,08,21,05,02,14.70
2011,08,21,05,03,14.70
2011,08,21,05,04,14.70
2011,08,21,05,05,14.70
2011,08,21,05,06,14.70
2011,08,21,05,07,14.70
2011,08,21,05,08,14.60
2011,08,21,05,09,14.60
2011,08,21,05,10,14.60
2011,08,21,05,11,14.60
2011,08,21,05,12,14.60
2011,08,21,05,13,14.60
2011,08,21,05,14,14.60
2011,08,21,05,15,14.60
2011,08,21,05,16,14.60
2011,08,21,05,17,14.60
2011,08,21,05,18,14.60
2011,08,21,05,19,14.60
2011,08,21,05,20,14.60
2011,08,21,05,21,14.60
2011,08,21,05,22,14.60
2011,08,21,05,23,14.60
2011,08,21,05,24,14.60
2011,08,21,05,25,14.60
2011,08,21,05,26,14.60
2011,08,21,05,27,14.60
2011,08,21,05,28,14.60
2011,08,21,05,29,14.60
2011,08,21,05,30,14.60
2011,08,21,05,31,14.60
2011,08,21,05,32,14.60
2011,08,21,05,33,14.60
2011,08,21,05,34,14.60
2011,08,21,05,35,14.60
2011,08,21,05,36,14.60
2011,08,21,05,37,14.60
2011,08,21,05,38,14.70
2011,08,21,05,39,14.70
2011,08,21,05,40,14.70
2011,08,21,05,41,14.70
2011,08,21,05,42,14.70
2011,08,21,05,43,14.70
2011,08,21,05,44,14.70
2011,08,21,05,45,14.70
2011,08,21,05,46,14.70
2011,08,21,05,47,14.70
2011,08,21,05,48,14.70
2011,08,21,05,49,14.70
2011,08,21,05,50,14.70
2011,08,21,05,51,14.70
2011,08,21,05,52,14.70
2011,08,21,05,53,14.70
2011,08,21,05,54,14.70
2011,08,21,05,55,14.70
2011,08,21,05,56,14.70
2011,08,21,05,57,14.60
2011,08,21,05,58,14.60
2011,08,21,05,59,14.60
2011,08,21,06,00,14.60
2011,08,21,06,01,14.60
2011,08,21,06,02,14.60
2011,08,21,06,03,14.60
2011,08,21,06,04,14.60
2011,08,21,06,05,14.60
2011,08,21,06,06,14.60
2011,08,21,06,07,14.60
2011,08,21,06,08,14.60
2011,08,21,06,09,14.60
2011,08,21,06,10,14.60
2011,08,21,06,11,14.60
2011,08,21,06,12,14.60
2011,08,21,06,13,14.60
2011,08,21,06,14,14.60
2011,08,21,06,15,14.60
2011,08,21,06,16,14.50
2011,08,21,06,17,14.50
2011,08,21,06,18,14.50
2011,08,21,06,19,14.50
2011,08,21,06,20,14.50
2011,08,21,06,21,14.50
2011,08,21,06,22,14.40
2011,08,21,06,23,14.40
2011,08,21,06,24,14.40
2011,08,21,06,25,14.40
2011,08,21,06,26,14.40
2011,08,21,06,27,14.40
2011,08,21,06,28,14.40
2011,08,21,06,29,14.40
2011,08,21,06,30,14.30
2011,08,21,06,31,14.30
2011,08,21,06,32,14.30
2011,08,21,06,33,14.30
2011,08,21,06,34,14.30
2011,08,21,06,35,14.30
2011,08,21,06,36,14.30
2011,08,21,06,37,14.30
2011,08,21,06,38,14.30
2011,08,21,06,39,14.20
2011,08,21,06,40,14.20
2011,08,21,06,41,14.20
2011,08,21,06,42,14.20
2011,08,21,06,43,14.20
2011,08,21,06,44,14.20
2011,08,21,06,45,14.20
2011,08,21,06,46,14.20
2011,08,21,06,47,14.20
2011,08,21,06,48,14.20
2011,08,21,06,49,14.20
2011,08,21,06,50,14.20
2011,08,21,06,51,14.20
2011,08,21,06,52,14.20
2011,08,21,06,53,14.20
2011,08,21,06,54,14.20
2011,08,21,06,55,14.20
2011,08,21,06,56,14.20
2011,08,21,06,57,14.20
2011,08,21,06,58,14.20
2011,08,21,06,59,14.20
2011,08,21,07,00,14.20
2011,08,21,07,01,14.20
2011,08,21,07,02,14.20
2011,08,21,07,03,14.20
2011,08,21,07,04,14.20
2011,08,21,07,05,14.20
2011,08,21,07,06,14.20
2011,08,21,07,07,14.30
2011,08,21,07,08,14.30
2011,08,21,07,09,14.30
2011,08,21,07,10,14.30
2011,08,21,07,11,14.30
2011,08,21,07,12,14.30
2011,08,21,07,13,14.30
2011,08,21,07,14,14.40
2011,08,21,07,15,14.40
2011,08,21,07,16,14.40
2011,08,21,07,17,14.40
2011,08,21,07,18,14.40
2011,08,21,07,19,14.50
2011,08,21,07,20,14.50
2011,08,21,07,21,14.50
2011,08,21,07,22,14.50
2011,08,21,07,23,14.60
2011,08,21,07,24,14.60
2011,08,21,07,25,14.60
2011,08,21,07,26,14.60
2011,08,21,07,27,14.70
2011,08,21,07,28,14.70
2011,08,21,07,29,14.70
2011,08,21,07,30,14.70
2011,08,21,07,31,14.80
2011,08,21,07,32,14.80
2011,08,21,07,33,14.90
2011,08,21,07,34,14.90
2011,08,21,07,35,15.00
2011,08,21,07,36,15.10
2011,08,21,07,37,15.20
2011,08,21,07,38,15.20
2011,08,21,07,39,15.30
2011,08,21,07,40,15.30
2011,08,21,07,41,15.30
2011,08,21,07,42,15.30
2011,08,21,07,43,15.40
2011,08,21,07,44,15.30
2011,08,21,07,45,15.30
2011,08,21,07,46,15.30
2011,08,21,07,47,15.30
2011,08,21,07,48,15.20
2011,08,21,07,49,15.20
2011,08,21,07,50,15.20
2011,08,21,07,51,15.20
2011,08,21,07,52,15.20
2011,08,21,07,53,15.20
2011,08,21,07,54,15.20
2011,08,21,07,55,15.20
2011,08,21,07,56,15.20
2011,08,21,07,57,15.20
2011,08,21,07,58,15.20
2011,08,21,07,59,15.20
2011,08,21,08,00,15.20
2011,08,21,08,01,15.20
2011,08,21,08,02,15.20
2011,08,21,08,03,15.20
2011,08,21,08,04,15.20
2011,08,21,08,05,15.20
2011,08,21,08,06,15.30
2011,08,21,08,07,15.30
2011,08,21,08,08,15.30
2011,08,21,08,09,15.30
2011,08,21,08,10,15.30
2011,08,21,08,11,15.30
2011,08,21,08,12,15.40
2011,08,21,08,13,15.40
2011,08,21,08,14,15.40
2011,08,21,08,15,15.40
2011,08,21,08,16,15.40
2011,08,21,08,17,15.50
2011,08,21,08,18,15.50
2011,08,21,08,19,15.50
2011,08,21,08,20,15.60
2011,08,21,08,21,15.60
2011,08,21,08,22,15.60
2011,08,21,08,23,15.60
2011,08,21,08,24,15.60
2011,08,21,08,25,15.70
2011,08,21,08,26,15.70
2011,08,21,08,27,15.70
2011,08,21,08,28,15.70
2011,08,21,08,29,15.80
2011,08,21,08,30,15.80
2011,08,21,08,31,15.80
2011,08,21,08,32,15.80
2011,08,21,08,33,15.80
2011,08,21,08,34,15.80
2011,08,21,08,35,15.80
2011,08,21,08,36,15.90
2011,08,21,08,37,15.90
2011,08,21,08,38,15.90
2011,08,21,08,39,15.90
2011,08,21,08,40,15.90
2011,08,21,08,41,15.90
2011,08,21,08,42,15.90
2011,08,21,08,43,15.80
2011,08,21,08,44,15.80
2011,08,21,08,45,15.80
2011,08,21,08,46,15.80
2011,08,21,08,47,15.80
2011,08,21,08,48,15.80
2011,08,21,08,49,15.90
2011,08,21,08,50,15.90
2011,08,21,08,51,15.90
2011,08,21,08,52,15.90
2011,08,21,08,53,16.00
2011,08,21,08,54,16.00
2011,08,21,08,55,16.10
2011,08,21,08,56,16.20
2011,08,21,08,57,16.20
2011,08,21,08,58,16.30
2011,08,21,08,59,16.30
2011,08,21,09,00,16.40
2011,08,21,09,01,16.50
2011,08,21,09,02,16.50
2011,08,21,09,03,16.60
2011,08,21,09,04,16.70
2011,08,21,09,05,16.70
2011,08,21,09,06,16.80
2011,08,21,09,07,16.90
2011,08,21,09,08,17.00
2011,08,21,09,09,17.00
2011,08,21,09,10,17.10
2011,08,21,09,11,17.20
2011,08,21,09,12,17.30
2011,08,21,09,13,17.40
2011,08,21,09,14,17.50
2011,08,21,09,15,17.60
2011,08,21,09,16,17.80
2011,08,21,09,17,17.80
2011,08,21,09,18,17.90
2011,08,21,09,19,18.00
2011,08,21,09,20,18.10
2011,08,21,09,21,18.20
2011,08,21,09,22,18.20
2011,08,21,09,23,18.20
2011,08,21,09,24,18.30
2011,08,21,09,25,18.30
2011,08,21,09,26,18.40
2011,08,21,09,27,18.40
2011,08,21,09,28,18.50
2011,08,21,09,29,18.50
2011,08,21,09,30,18.60
2011,08,21,09,31,18.60
2011,08,21,09,32,18.70
2011,08,21,09,33,18.70
2011,08,21,09,34,18.80
2011,08,21,09,35,18.80
2011,08,21,09,36,18.80
2011,08,21,09,37,18.90
2011,08,21,09,38,18.90
2011,08,21,09,39,18.90
2011,08,21,09,40,18.90
2011,08,21,09,41,18.90
2011,08,21,09,42,18.90
2011,08,21,09,43,18.90
2011,08,21,09,44,18.90
2011,08,21,09,45,18.90
2011,08,21,09,46,18.80
2011,08,21,09,47,18.80
2011,08,21,09,48,18.70
2011,08,21,09,49,18.70
2011,08,21,09,50,18.60
2011,08,21,09,51,18.60
2011,08,21,09,52,18.60
2011,08,21,09,53,18.50
2011,08,21,09,54,18.50
2011,08,21,09,55,18.50
2011,08,21,09,56,18.50
2011,08,21,09,57,18.50
2011,08,21,09,58,18.50
2011,08,21,09,59,18.60
2011,08,21,10,00,18.60
2011,08,21,10,01,18.60
2011,08,21,10,02,18.70
2011,08,21,10,03,18.70
2011,08,21,10,04,18.70
2011,08,21,10,05,18.70
2011,08,21,10,06,18.70
2011,08,21,10,07,18.70
2011,08,21,10,08,18.70
2011,08,21,10,09,18.70
2011,08,21,10,10,18.80
2011,08,21,10,11,18.80
2011,08,21,10,12,18.90
2011,08,21,10,13,18.90
2011,08,21,10,14,18.90
2011,08,21,10,15,19.00
2011,08,21,10,16,19.10
2011,08,21,10,17,19.10
2011,08,21,10,18,19.20
2011,08,21,10,19,19.20
2011,08,21,10,20,19.30
2011,08,21,10,21,19.30
2011,08,21,10,22,19.40
2011,08,21,10,23,19.40
2011,08,21,10,24,19.40
2011,08,21,10,25,19.50
2011,08,21,10,26,19.50
2011,08,21,10,27,19.60
2011,08,21,10,28,19.60
2011,08,21,10,29,19.60
2011,08,21,10,30,19.60
2011,08,21,10,31,19.70
2011,08,21,10,32,19.70
2011,08,21,10,33,19.70
2011,08,21,10,34,19.80
2011,08,21,10,35,19.80
2011,08,21,10,36,19.80
2011,08,21,10,37,19.80
2011,08,21,10,38,19.80
2011,08,21,10,39,19.90
2011,08,21,10,40,19.90
2011,08,21,10,41,20.00
2011,08,21,10,42,20.00
2011,08,21,10,43,20.10
2011,08,21,10,44,20.20
2011,08,21,10,45,20.30
2011,08,21,10,46,20.30
2011,08,21,10,47,20.40
2011,08,21,10,48,20.60
2011,08,21,10,49,20.70
2011,08,21,10,50,20.80
2011,08,21,10,51,20.90
2011,08,21,10,52,21.00
2011,08,21,10,53,21.10
2011,08,21,10,54,21.20
2011,08,21,10,55,21.20
2011,08,21,10,56,21.30
2011,08,21,10,57,21.40
2011,08,21,10,58,21.40
2011,08,21,10,59,21.40
2011,08,21,11,00,21.50
2011,08,21,11,01,21.50
2011,08,21,11,02,21.60
2011,08,21,11,03,21.60
2011,08,21,11,04,21.70
2011,08,21,11,05,21.70
2011,08,21,11,06,21.60
2011,08,21,11,07,21.60
2011,08,21,11,08,21.60
2011,08,21,11,09,21.50
2011,08,21,11,10,21.50
2011,08,21,11,11,21.40
2011,08,21,11,12,21.40
2011,08,21,11,13,21.40
2011,08,21,11,14,21.30
2011,08,21,11,15,21.30
2011,08,21,11,16,21.40
2011,08,21,11,17,21.40
2011,08,21,11,18,21.40
2011,08,21,11,19,21.50
2011,08,21,11,20,21.50
2011,08,21,11,21,21.50
2011,08,21,11,22,21.60
2011,08,21,11,23,21.60
2011,08,21,11,24,21.60
2011,08,21,11,25,21.70
2011,08,21,11,26,21.70
2011,08,21,11,27,21.60
2011,08,21,11,28,21.60
2011,08,21,11,29,21.50
2011,08,21,11,30,21.50
2011,08,21,11,31,21.40
2011,08,21,11,32,21.50
2011,08,21,11,33,21.50
2011,08,21,11,34,21.60
2011,08,21,11,35,21.60
2011,08,21,11,36,21.70
2011,08,21,11,37,21.70
2011,08,21,11,38,21.70
2011,08,21,11,39,21.60
2011,08,21,11,40,21.60
2011,08,21,11,41,21.70
2011,08,21,11,42,21.70
2011,08,21,11,43,21.70
2011,08,21,11,44,21.70
2011,08,21,11,45,21.60
2011,08,21,11,46,21.60
2011,08,21,11,47,21.60
2011,08,21,11,48,21.50
2011,08,21,11,49,21.50
2011,08,21,11,50,21.50
2011,08,21,11,51,21.50
2011,08,21,11,52,21.50
2011,08,21,11,53,21.40
2011,08,21,11,54,21.30
2011,08,21,11,55,21.20
2011,08,21,11,56,21.20
2011,08,21,11,57,21.20
2011,08,21,11,58,21.20
2011,08,21,11,59,21.10
2011,08,21,12,00,21.10
2011,08,21,12,01,21.10
2011,08,21,12,02,21.10
2011,08,21,12,03,21.20
2011,08,21,12,04,21.30
2011,08,21,12,05,21.30
2011,08,21,12,06,21.40
2011,08,21,12,07,21.50
2011,08,21,12,08,21.60
2011,08,21,12,09,21.70
2011,08,21,12,10,21.80
2011,08,21,12,11,21.80
2011,08,21,12,12,21.90
2011,08,21,12,13,22.00
2011,08,21,12,14,22.10
2011,08,21,12,15,22.20
2011,08,21,12,16,22.20
2011,08,21,12,17,22.30
2011,08,21,12,18,22.30
2011,08,21,12,19,22.30
2011,08,21,12,20,22.40
2011,08,21,12,21,22.40
2011,08,21,12,22,22.40
2011,08,21,12,23,22.40
2011,08,21,12,24,22.40
2011,08,21,12,25,22.50
2011,08,21,12,26,22.50
2011,08,21,12,27,22.50
2011,08,21,12,28,22.50
2011,08,21,12,29,22.50
2011,08,21,12,30,22.60
2011,08,21,12,31,22.60
2011,08,21,12,32,22.60
2011,08,21,12,33,22.60
2011,08,21,12,34,22.60
2011,08,21,12,35,22.60
2011,08,21,12,36,22.60
2011,08,21,12,37,22.70
2011,08,21,12,38,22.70
2011,08,21,12,39,22.70
2011,08,21,12,40,22.70
2011,08,21,12,41,22.70
2011,08,21,12,42,22.70
2011,08,21,12,43,22.70
2011,08,21,12,44,22.70
2011,08,21,12,45,22.70
2011,08,21,12,46,22.70
2011,08,21,12,47,22.70
2011,08,21,12,48,22.70
2011,08,21,12,49,22.70
2011,08,21,12,50,22.80
2011,08,21,12,51,22.80
2011,08,21,12,52,22.80
2011,08,21,12,53,22.80
2011,08,21,12,54,22.80
2011,08,21,12,55,22.90
2011,08,21,12,56,22.90
2011,08,21,12,57,22.90
2011,08,21,12,58,22.90
2011,08,21,12,59,22.90
2011,08,21,13,00,22.90
2011,08,21,13,01,22.90
2011,08,21,13,02,23.00
2011,08,21,13,03,23.00
2011,08,21,13,04,23.10
2011,08,21,13,05,23.20
2011,08,21,13,06,23.30
2011,08,21,13,07,23.40
2011,08,21,13,08,23.60
2011,08,21,13,09,23.60
2011,08,21,13,10,23.70
2011,08,21,13,11,23.70
2011,08,21,13,12,23.80
2011,08,21,13,13,23.90
2011,08,21,13,14,24.10
2011,08,21,13,15,24.20
2011,08,21,13,16,24.40
2011,08,21,13,17,24.50
2011,08,21,13,18,24.60
2011,08,21,13,19,24.80
2011,08,21,13,20,24.90
2011,08,21,13,21,24.90
2011,08,21,13,22,24.80
2011,08,21,13,23,24.90
2011,08,21,13,24,24.90
2011,08,21,13,25,25.00
2011,08,21,13,26,25.10
2011,08,21,13,27,25.10
2011,08,21,13,28,25.20
2011,08,21,13,29,25.20
2011,08,21,13,30,25.30
2011,08,21,13,31,25.40
2011,08,21,13,32,25.50
2011,08,21,13,33,25.50
2011,08,21,13,34,25.60
2011,08,21,13,35,25.60
2011,08,21,13,36,25.70
2011,08,21,13,37,25.80
2011,08,21,13,38,25.90
2011,08,21,13,39,26.00
2011,08,21,13,40,26.00
2011,08,21,13,41,26.10
2011,08,21,13,42,26.10
2011,08,21,13,43,26.10
2011,08,21,13,44,26.20
2011,08,21,13,45,26.20
2011,08,21,13,46,26.30
2011,08,21,13,47,26.40
2011,08,21,13,48,26.40
2011,08,21,13,49,26.50
2011,08,21,13,50,26.50
2011,08,21,13,51,26.60
2011,08,21,13,52,26.70
2011,08,21,13,53,26.80
2011,08,21,13,54,26.80
2011,08,21,13,55,26.80
2011,08,21,13,56,26.80
2011,08,21,13,57,26.90
2011,08,21,13,58,26.90
2011,08,21,13,59,27.00
2011,08,21,14,00,27.10
2011,08,21,14,01,27.10
2011,08,21,14,02,27.20
2011,08,21,14,03,27.20
2011,08,21,14,04,27.20
2011,08,21,14,05,27.20
2011,08,21,14,06,27.30
2011,08,21,14,07,27.30
2011,08,21,14,08,27.30
2011,08,21,14,09,27.40
2011,08,21,14,10,27.50
2011,08,21,14,11,27.50
2011,08,21,14,12,27.50
2011,08,21,14,13,27.60
2011,08,21,14,14,27.60
2011,08,21,14,15,27.60
2011,08,21,14,16,27.60
2011,08,21,14,17,27.60
2011,08,21,14,18,27.60
2011,08,21,14,19,27.60
2011,08,21,14,20,27.70
2011,08,21,14,21,27.80
2011,08,21,14,22,27.80
2011,08,21,14,23,27.90
2011,08,21,14,24,27.90
2011,08,21,14,25,28.00
2011,08,21,14,26,28.00
2011,08,21,14,27,28.00
2011,08,21,14,28,27.90
2011,08,21,14,29,27.80
2011,08,21,14,30,27.80
2011,08,21,14,31,27.70
2011,08,21,14,32,27.70
2011,08,21,14,33,27.70
2011,08,21,14,34,27.60
2011,08,21,14,35,27.50
2011,08,21,14,36,27.50
2011,08,21,14,37,27.40
2011,08,21,14,38,27.30
2011,08,21,14,39,27.20
2011,08,21,14,40,27.10
2011,08,21,14,41,27.10
2011,08,21,14,42,27.00
2011,08,21,14,43,26.90
2011,08,21,14,44,26.90
2011,08,21,14,45,26.80
2011,08,21,14,46,26.70
2011,08,21,14,47,26.70
2011,08,21,14,48,26.60
2011,08,21,14,49,26.50
2011,08,21,14,50,26.50
2011,08,21,14,51,26.40
2011,08,21,14,52,26.30
2011,08,21,14,53,26.20
2011,08,21,14,54,26.20
2011,08,21,14,55,26.20
2011,08,21,14,56,26.20
2011,08,21,14,57,26.20
2011,08,21,14,58,26.20
2011,08,21,14,59,26.20
2011,08,21,15,00,26.10
2011,08,21,15,01,26.10
2011,08,21,15,02,26.00
2011,08,21,15,03,25.90
2011,08,21,15,04,25.80
2011,08,21,15,05,25.70
2011,08,21,15,06,25.70
2011,08,21,15,07,25.60
2011,08,21,15,08,25.50
2011,08,21,15,09,25.40
2011,08,21,15,10,25.40
2011,08,21,15,11,25.40
2011,08,21,15,12,25.30
2011,08,21,15,13,25.30
2011,08,21,15,14,25.40
2011,08,21,15,15,25.40
2011,08,21,15,16,25.40
2011,08,21,15,17,25.40
2011,08,21,15,18,25.50
2011,08,21,15,19,25.50
2011,08,21,15,20,25.50
2011,08,21,15,21,25.60
2011,08,21,15,22,25.60
2011,08,21,15,23,25.50
2011,08,21,15,24,25.50
2011,08,21,15,25,25.60
2011,08,21,15,26,25.60
2011,08,21,15,27,25.60
2011,08,21,15,28,25.70
2011,08,21,15,29,25.70
2011,08,21,15,30,25.70
2011,08,21,15,31,25.70
2011,08,21,15,32,25.70
2011,08,21,15,33,25.70
2011,08,21,15,34,25.70
2011,08,21,15,35,25.60
2011,08,21,15,36,25.60
2011,08,21,15,37,25.60
2011,08,21,15,38,25.60
2011,08,21,15,39,25.60
2011,08,21,15,40,25.60
2011,08,21,15,41,25.60
2011,08,21,15,42,25.60
2011,08,21,15,43,25.60
2011,08,21,15,44,25.60
2011,08,21,15,45,25.60
2011,08,21,15,46,25.60
2011,08,21,15,47,25.50
2011,08,21,15,48,25.50
2011,08,21,15,49,25.60
2011,08,21,15,50,25.60
2011,08,21,15,51,25.70
2011,08,21,15,52,25.70
2011,08,21,15,53,25.80
2011,08,21,15,54,25.80
2011,08,21,15,55,25.90
2011,08,21,15,56,25.90
2011,08,21,15,57,25.90
2011,08,21,15,58,26.00
2011,08,21,15,59,26.00
2011,08,21,16,00,26.10
2011,08,21,16,01,26.10
2011,08,21,16,02,26.10
2011,08,21,16,03,26.10
2011,08,21,16,04,26.10
2011,08,21,16,05,26.20
2011,08,21,16,06,26.20
2011,08,21,16,07,26.20
2011,08,21,16,08,26.20
2011,08,21,16,09,26.20
2011,08,21,16,10,26.20
2011,08,21,16,11,26.20
2011,08,21,16,12,26.10
2011,08,21,16,13,26.10
2011,08,21,16,14,26.10
2011,08,21,16,15,26.10
2011,08,21,16,16,26.10
2011,08,21,16,17,26.10
2011,08,21,16,18,26.10
2011,08,21,16,19,26.10
2011,08,21,16,20,26.10
2011,08,21,16,21,26.10
2011,08,21,16,22,26.10
2011,08,21,16,23,26.10
2011,08,21,16,24,26.10
2011,08,21,16,25,26.10
2011,08,21,16,26,26.00
2011,08,21,16,27,26.00
2011,08,21,16,28,26.00
2011,08,21,16,29,25.90
2011,08,21,16,30,25.90
2011,08,21,16,31,25.80
2011,08,21,16,32,25.80
2011,08,21,16,33,25.80
2011,08,21,16,34,25.80
2011,08,21,16,35,25.70
2011,08,21,16,36,25.70
2011,08,21,16,37,25.70
2011,08,21,16,38,25.70
2011,08,21,16,39,25.70
2011,08,21,16,40,25.80
2011,08,21,16,41,25.80
2011,08,21,16,42,25.80
2011,08,21,16,43,25.80
2011,08,21,16,44,25.80
2011,08,21,16,45,25.80
2011,08,21,16,46,25.70
2011,08,21,16,47,25.60
2011,08,21,16,48,25.50
2011,08,21,16,49,25.50
2011,08,21,16,50,25.40
2011,08,21,16,51,25.40
2011,08,21,16,52,25.40
2011,08,21,16,53,25.30
2011,08,21,16,54,25.20
2011,08,21,16,55,25.10
2011,08,21,16,56,25.00
2011,08,21,16,57,25.00
2011,08,21,16,58,24.90
2011,08,21,16,59,24.90
2011,08,21,17,00,24.80
2011,08,21,17,01,24.80
2011,08,21,17,02,24.80
2011,08,21,17,03,24.70
2011,08,21,17,04,24.70
2011,08,21,17,05,24.70
2011,08,21,17,06,24.60
2011,08,21,17,07,24.60
2011,08,21,17,08,24.60
2011,08,21,17,09,24.60
2011,08,21,17,10,24.60
2011,08,21,17,11,24.60
2011,08,21,17,12,24.70
2011,08,21,17,13,24.70
2011,08,21,17,14,24.80
2011,08,21,17,15,24.80
2011,08,21,17,16,24.80
2011,08,21,17,17,24.90
2011,08,21,17,18,24.90
2011,08,21,17,19,24.90